EW9248 Weather Reports


time (UTC)temp
C
wind
direction
speed
KPH
gust
KPH
rain 1hr
cm
rain 24hr
cm
rain mn
cm
humidity
%
barometer
mb
20260505004336 18 225 4.8 6.4 0.00 0.00 0.00 48 1006.6
20260505003436 20 0.0 0.0 0.00 0.00 0.00 48 1006.5
20260505002337 19 180 4.8 4.8 0.00 0.00 0.00 48 1006.4
20260505001316 20 180 1.6 3.2 0.00 0.00 0.00 47 1006.2
20260505000358 20 225 1.6 3.2 0.00 0.00 0.00 46 1006.1
20260504235336 20 225 4.8 8.0 0.00 0.00 0.00 44 1006.0
20260504234317 20 135 3.2 4.8 0.00 0.00 0.00 44 1005.8
20260504233356 21 0.0 0.0 0.00 0.00 0.00 44 1005.7
20260504232316 21 225 4.8 12.9 0.00 0.00 0.00 43 1005.6
20260504231317 21 157 3.2 3.2 0.00 0.00 0.00 42 1005.5
20260504230316 22 180 4.8 6.4 0.00 0.00 0.00 42 1005.5
20260504225316 22 135 4.8 6.4 0.00 0.00 0.00 40 1005.3
20260504224316 22 180 6.4 11.3 0.00 0.00 0.00 35 1005.3
20260504223316 22 202 4.8 6.4 0.00 0.00 0.00 37 1005.4
20260504222316 23 247 8.0 12.9 0.00 0.00 0.00 35 1005.4
20260504221356 23 225 3.2 8.0 0.00 0.00 0.00 36 1005.4
20260504220359 22 247 8.0 14.5 0.00 0.00 0.00 37 1005.4
20260504215316 22 225 4.8 8.0 0.00 0.00 0.00 36 1005.5
20260504214336 23 247 11.3 22.5 0.00 0.00 0.00 36 1005.8
20260504213336 22 247 9.7 20.9 0.00 0.00 0.00 37 1005.7
20260504212436 22 202 9.7 16.1 0.00 0.00 0.00 37 1005.7
20260504211315 23 270 9.7 14.5 0.00 0.00 0.00 39 1005.6
20260504210316 22 247 12.9 19.3 0.00 0.00 0.00 38 1005.9
20260504205316 22 270 4.8 12.9 0.00 0.00 0.00 38 1006.0
20260504204316 22 247 16.1 24.1 0.00 0.00 0.00 37 1006.1
20260504203336 22 270 9.7 19.3 0.00 0.00 0.00 39 1006.2
20260504202336 21 225 6.4 16.1 0.00 0.00 0.00 43 1006.2
20260504201335 22 202 6.4 9.7 0.00 0.00 0.00 40 1006.4
20260504200315 21 247 6.4 8.0 0.00 0.00 0.00 43 1006.5
20260504195436 21 247 11.3 19.3 0.00 0.00 0.00 41 1006.6
20260504194356 21 270 12.9 19.3 0.00 0.00 0.00 45 1006.9
20260504193315 21 225 4.8 9.7 0.00 0.00 0.00 40 1006.9
20260504192356 21 247 9.7 12.9 0.00 0.00 0.00 41 1007.0
20260504191316 21 247 14.5 22.5 0.00 0.00 0.00 41 1007.3
20260504190315 22 270 9.7 16.1 0.00 0.00 0.00 41 1007.4
20260504185316 21 247 6.4 11.3 0.00 0.00 0.00 47 1007.6
20260504184355 21 225 4.8 12.9 0.00 0.00 0.00 43 1007.5
20260504183316 22 315 4.8 9.7 0.00 0.00 0.00 45 1007.5
20260504182315 21 202 6.4 8.0 0.00 0.00 0.00 43 1007.7
20260504181316 21 247 8.0 11.3 0.00 0.00 0.00 45 1007.7
20260504180355 20 202 11.3 25.7 0.00 0.00 0.00 44 1007.8
20260504175316 20 202 8.0 11.3 0.00 0.00 0.00 44 1008.0
20260504174315 21 202 6.4 11.3 0.00 0.00 0.00 47 1008.1
20260504173335 20 202 9.7 17.7 0.00 0.00 0.00 44 1008.0
20260504172315 20 270 12.9 22.5 0.00 0.00 0.00 46 1008.3
20260504171336 20 247 12.9 20.9 0.00 0.00 0.00 47 1008.3
20260504170315 20 247 9.7 20.9 0.00 0.00 0.00 48 1008.4
20260504160316 18 202 8.0 14.5 0.00 0.00 0.00 45 1009.2
20260504150336 17 247 14.5 22.5 0.00 0.00 0.00 49 1010.0
20260504141335 15 225 4.8 8.0 0.00 0.00 0.00 53 1010.6
20260504140315 14 225 11.3 17.7 0.00 0.00 0.00 52 1010.7
20260504130315 11 225 1.6 6.4 0.00 0.00 0.00 60 1011.2
20260504110337 2 0.0 0.0 0.00 0.00 0.00 92 1011.2
20260504100317 0 0.0 0.0 0.00 0.00 0.00 92 1010.9
20260504081317 1 0.0 0.0 0.00 0.00 0.00 90 1011.1
20260504080357 1 0.0 0.0 0.00 0.00 0.00 90 1011.1
20260504070337 2 0.0 0.0 0.00 0.00 0.00 89 1011.1
20260504050317 4 0.0 0.0 0.00 0.00 0.00 85 1011.3
20260504045316 4 0.0 0.0 0.00 0.00 0.00 84 1011.4
20260504044357 5 0.0 0.0 0.00 0.00 0.00 83 1011.3
20260504043316 5 0.0 0.0 0.00 0.00 0.00 82 1011.3
20260504042316 5 0.0 0.0 0.00 0.00 0.00 81 1011.3
20260504041316 6 0.0 0.0 0.00 0.00 0.00 81 1011.3
20260504040316 6 0.0 0.0 0.00 0.00 0.00 80 1011.3
20260504035337 7 0.0 0.0 0.00 0.00 0.00 79 1011.3
20260504034316 7 0.0 0.0 0.00 0.00 0.00 78 1011.3
20260504033316 7 0.0 0.0 0.00 0.00 0.00 78 1011.4
20260504032437 7 0.0 0.0 0.00 0.00 0.00 78 1011.4
20260504031316 8 0.0 0.0 0.00 0.00 0.00 77 1011.5
20260504030316 8 0.0 0.0 0.00 0.00 0.00 76 1011.5
20260504025336 8 0.0 0.0 0.00 0.00 0.00 75 1011.4
20260504024317 8 0.0 0.0 0.00 0.00 0.00 75 1011.5
20260504023336 8 0.0 0.0 0.00 0.00 0.00 76 1011.7
20260504022336 8 0.0 0.0 0.00 0.00 0.00 75 1011.7
20260504021316 8 225 1.6 1.6 0.00 0.00 0.00 74 1011.7
20260504020336 8 0.0 0.0 0.00 0.00 0.00 73 1011.7
20260504015316 8 0.0 1.6 0.00 0.00 0.00 73 1011.7
20260504014436 8 0.0 0.0 0.00 0.00 0.00 73 1011.6
20260504013317 8 0.0 0.0 0.00 0.00 0.00 73 1011.5
20260504012316 8 0.0 0.0 0.00 0.00 0.00 72 1011.4
20260504011356 9 0.0 0.0 0.00 0.00 0.00 71 1011.4
20260504010316 9 0.0 0.0 0.00 0.00 0.00 69 1011.3
20260504005316 10 0.0 0.0 0.00 0.00 0.00 70 1011.3